CAPE
1 4 4 10 0 0 0 0 0 0 0 0 0 0 0 0 0 0 0 0 0 0 0 0 0 0 0 0 0 0 0 0 0 0 0 0 0 0 0 0 0 0 0 0
1 0 0 7 10 1 0 0 0 0 0 0 0 0 0 0 0 0 0 0 0 0 0 0 0 0 0 0 0 0 0 0 0 0 0 0 0 0 0 0 0 0 0 0
0 0 0 0 0 1 1 1 0 0 0 0 0 0 0 0 0 0 0 0 0 0 0 0 0 0 0 0 0 0 0 0 0 0 0 0 0 0 0 0 0 0 0 0
10 0 0 0 0 0 0 0 0 6 10 0 0 0 0 0 0 0 0 0 0 0 0 0 0 0 0 0 0 0 0 0 0 0 0 0 0 0 0 0 0 0 0 0
0 0 1 2 0 1 1 0 0 7 6 5 0 0 0 0 0 0 0 0 0 0 0 0 0 0 0 0 0 0 0 0 0 0 0 0 0 0 0 0 0 0 0 0
7 0 0 0 0 7 3 0 0 1 3 1 0 0 0 0 0 0 0 0 0 0 0 0 0 0 0 0 0 0 0 0 0 0 0 0 0 0 0 0 0 0 0 0
4 3 0 8 22 0 3 1 0 0 0 0 0 0 0 0 0 0 0 0 0 0 0 0 0 0 0 0 0 0 0 0 0 0 0 0 0 0 0 0 0 0 0 0
0 0 1 1 7 5 3 0 0 0 0 0 0 0 0 0 0 0 0 0 0 0 0 0 0 0 0 0 0 0 0 0 0 0 0 0 0 0 0 0 0 0 0 0
0 0 0 0 0 4 2 0 0 0 0 0 0 0 0 0 0 0 0 0 0 0 0 0 0 0 0 0 0 0 0 0 0 0 0 0 0 0 0 0 0 0 0 0
1 0 0 4 33 18 0 0 1 0 0 0 0 0 0 0 0 0 0 0 0 0 0 0 0 0 0 0 0 0 0 0 0 0 0 0 0 0 0 0 0 0 0 0
8 5 0 15 7 0 13 26 11 4 0 0 0 0 0 0 0 0 0 0 0 0 0 0 0 0 0 0 0 0 0 0 0 0 0 0 0 0 0 0 0 0 0 0
2 1 3 0 0 0 36 3 13 10 0 0 0 0 0 0 0 0 0 0 0 0 0 0 0 0 0 0 0 0 0 0 0 0 0 0 0 0 0 0 0 0 0 0
0 1 0 0 0 0 3 1 7 1 2 0 0 0 0 0 0 0 0 0 0 0 0 0 0 0 0 0 0 0 0 0 0 0 0 0 0 0 0 0 0 0 0 0
38 0 0 0 0 0 2 5 11 17 28 0 0 0 0 0 0 0 0 0 0 0 0 0 0 0 0 0 0 0 0 0 0 0 0 0 0 0 0 0 0 0 0 0
26 5 0 0 0 0 3 0 4 21 1 7 0 0 0 0 0 0 0 0 0 0 0 0 0 0 0 0 0 0 0 0 0 0 0 0 0 0 0 0 0 0 0 0
0 0 8 0 0 0 0 0 0 2 4 2 0 0 0 0 0 0 0 0 0 0 0 0 0 0 0 0 0 0 0 0 0 0 0 0 0 0 0 0 0 0 0 0
0 0 1 0 0 0 0 0 0 0 1 1 0 0 0 0 0 0 0 0 0 0 0 0 0 0 0 0 0 0 0 0 0 0 0 0 0 0 0 0 0 0 0 0
0 0 0 0 1 3 0 0 0 0 0 0 0 0 0 0 0 0 0 0 0 0 0 0 0 0 0 0 0 0 0 0 0 0 0 0 0 0 0 0 0 0 0 0
0 0 0 0 0 0 0 0 0 0 0 0 0 0 0 0 0 0 0 0 0 0 0 0 0 0 0 0 0 0 0 0 0 0 0 0 0 0 0 0 0 0 0 0
0 0 0 0 0 0 0 0 0 0 0 0 0 0 0 0 0 0 0 0 0 0 0 0 0 0 0 0 0 0 0 0 0 0 0 0 0 0 0 0 0 0 0 0
0 2 0 0 0 0 0 0 0 0 0 0 0 0 0 0 0 0 0 0 0 0 0 0 0 0 0 0 0 0 0 0 0 0 0 0 0 0 0 0 0 0 0 0
0 0 0 1 0 0 0 0 0 0 0 0 0 0 0 0 0 0 0 0 0 0 0 0 0 0 0 0 0 0 0 0 0 0 0 0 0 0 0 0 0 0 0 0
0 3 0 0 0 0 0 0 0 0 0 0 0 0 0 0 0 0 0 0 0 0 0 0 0 0 0 0 0 0 0 0 0 0 0 0 0 0 0 0 0 0 0 0
0 0 14 19 0 0 0 0 0 0 0 0 0 0 0 0 0 0 0 0 0 0 0 0 0 0 0 0 0 0 0 0 0 0 0 0 0 0 0 0 0 0 0 0
0 1 3 0 0 0 0 0 0 0 0 0 0 0 0 0 0 0 0 0 0 0 0 0 0 0 0 0 0 0 0 0 0 0 0 0 0 0 0 0 0 0 0 0
0 2 4 7 0 1 0 0 0 0 0 0 0 0 0 0 0 0 0 0 0 0 0 0 0 0 0 0 0 0 0 0 0 0 0 0 0 0 0 0 0 0 1 1
CIN
-0 -0 -0 -1 -2 -0 -0 -0 -0 -0 -0 -0 -0 -0 -0 -0 -0 -0 -0 -0 -0 -0 -0 -0 -0 -0 -0 -0 -0 -0 -0 -0 -0 -0 -0 -0 -0 -0 -0 -0 -0 -0 -0 -0
-0 -0 -0 -16 -15 -2 -0 -0 -0 -0 -0 -0 -0 -0 -0 -0 -0 -0 -0 -0 -0 -0 -0 -0 -0 -0 -0 -0 -0 -0 -0 -0 -0 -0 -0 -0 -0 -0 -0 -0 -0 -0 -0 -0
-0 -0 -0 -0 -5 -0 -0 -1 -0 -0 -0 -0 -0 -0 -0 -0 -0 -0 -0 -0 -0 -0 -0 -0 -0 -0 -0 -0 -0 -0 -0 -0 -0 -0 -0 -0 -0 -0 -0 -0 -0 -0 -0 -0
-3 -0 -0 -2 -0 -0 -0 -0 -2 -0 -0 -0 -0 -0 -0 -0 -0 -0 -0 -0 -0 -0 -0 -0 -0 -0 -0 -0 -0 -0 -0 -0 -0 -0 -0 -0 -0 -0 -0 -0 -0 -0 -0 -0
-0 -0 -3 -7 -0 -0 -7 -1 -6 -3 -0 -6 -0 -0 -0 -0 -0 -0 -0 -0 -0 -0 -0 -0 -0 -0 -0 -0 -0 -0 -0 -0 -0 -0 -0 -0 -0 -0 -0 -0 -0 -0 -0 -0
-6 -11 -0 -1 -14 -68 -63 -0 -0 -0 -0 -1 -0 -0 -0 -0 -0 -0 -0 -0 -0 -0 -0 -0 -0 -0 -0 -0 -0 -0 -0 -0 -0 -0 -0 -0 -0 -0 -0 -0 -0 -0 -0 -0
-0 -1 -0 -8 -2 -39 -65 -0 -0 -0 -0 -0 -0 -0 -0 -0 -0 -0 -0 -0 -0 -0 -0 -0 -0 -0 -0 -0 -0 -0 -0 -0 -0 -0 -0 -0 -0 -0 -0 -0 -0 -0 -0 -0
-0 -0 -0 -3 -4 -1 -0 -0 -0 -0 -0 -0 -0 -0 -0 -0 -0 -0 -0 -0 -0 -0 -0 -0 -0 -0 -0 -0 -0 -0 -0 -0 -0 -0 -0 -0 -0 -0 -0 -0 -0 -0 -0 -0
-0 -0 -0 -0 -0 -3 -0 -0 -0 -0 -0 -0 -0 -0 -0 -0 -0 -0 -0 -0 -0 -0 -0 -0 -0 -0 -0 -0 -0 -0 -0 -0 -0 -0 -0 -0 -0 -0 -0 -0 -0 -0 -0 -0
-6 -0 -0 -8 -9 -5 -0 -0 -0 -0 -0 -0 -0 -0 -0 -0 -0 -0 -0 -0 -0 -0 -0 -0 -0 -0 -0 -0 -0 -0 -0 -0 -0 -0 -0 -0 -0 -0 -0 -0 -0 -0 -0 -0
-4 -2 -0 -10 -1 -0 -3 -0 -9 -6 -0 -0 -0 -0 -0 -0 -0 -0 -0 -0 -0 -0 -0 -0 -0 -0 -0 -0 -0 -0 -0 -0 -0 -0 -0 -0 -0 -0 -0 -0 -0 -0 -0 -0
-3 -1 -10 -0 -0 -0 -13 -8 -4 -4 -0 -0 -0 -0 -0 -0 -0 -0 -0 -0 -0 -0 -0 -0 -0 -0 -0 -0 -0 -0 -0 -0 -0 -0 -0 -0 -0 -0 -0 -0 -0 -0 -0 -0
-0 -0 -0 -0 -0 -0 -1 -0 -1 -3 -1 -0 -0 -0 -0 -0 -0 -0 -0 -0 -0 -0 -0 -0 -0 -0 -0 -0 -0 -0 -0 -0 -0 -0 -0 -0 -0 -0 -0 -0 -0 -0 -0 -0
-3 -0 -0 -0 -0 -0 -3 -0 -0 -0 -1 -0 -0 -0 -0 -0 -0 -0 -0 -0 -0 -0 -0 -0 -0 -0 -0 -0 -0 -0 -0 -0 -0 -0 -0 -0 -0 -0 -0 -0 -0 -0 -0 -0
-7 -1 -0 -0 -0 -0 -4 -0 -1 -5 -3 -1 -0 -0 -0 -0 -0 -0 -0 -0 -0 -0 -0 -0 -0 -0 -0 -0 -0 -0 -0 -0 -0 -0 -0 -0 -0 -0 -0 -0 -0 -0 -0 -0
-7 -1 -1 -0 -0 -0 -0 -0 -0 -1 -1 -1 -0 -0 -0 -0 -0 -0 -0 -0 -0 -0 -0 -0 -0 -0 -0 -0 -0 -0 -0 -0 -0 -0 -0 -0 -0 -0 -0 -0 -0 -0 -0 -0
-0 -0 -0 -0 -0 -0 -0 -0 -0 -0 -1 -0 -4 -0 -0 -0 -0 -0 -0 -0 -0 -0 -0 -0 -0 -0 -0 -0 -0 -0 -0 -0 -0 -0 -0 -0 -0 -0 -0 -0 -0 -0 -0 -0
-0 -0 -0 -0 -2 -2 -0 -0 -0 -0 -0 -0 -0 -0 -0 -0 -0 -0 -0 -0 -0 -0 -0 -0 -0 -0 -0 -0 -0 -0 -0 -0 -0 -0 -0 -0 -0 -0 -0 -0 -0 -0 -0 -0
-0 -0 -0 -0 -0 -0 -0 -0 -0 -0 -0 -0 -0 -0 -0 -0 -0 -0 -0 -0 -0 -0 -0 -0 -0 -0 -0 -0 -0 -0 -0 -0 -0 -0 -0 -0 -0 -0 -0 -0 -0 -0 -0 -0
-0 -0 -0 -0 -0 -0 -0 -0 -0 -0 -1 -0 -0 -0 -0 -0 -0 -0 -0 -0 -0 -0 -0 -0 -0 -0 -0 -0 -0 -0 -0 -0 -0 -0 -0 -0 -0 -0 -0 -0 -0 -0 -0 -0
-0 -0 -0 -0 -0 -0 -0 -0 -0 -1 -0 -0 -0 -0 -0 -0 -0 -0 -0 -0 -0 -0 -0 -0 -0 -0 -0 -0 -0 -0 -0 -0 -0 -0 -0 -0 -0 -0 -0 -0 -0 -0 -0 -0
-0 -0 -0 -0 -1 -0 -0 -0 -0 -0 -0 -0 -0 -0 -0 -0 -0 -0 -0 -0 -0 -0 -0 -0 -0 -0 -0 -0 -0 -0 -0 -0 -0 -0 -0 -0 -0 -0 -0 -0 -0 -0 -0 -0
-0 -0 -0 -0 -0 -0 -0 -0 -0 -0 -0 -0 -0 -0 -0 -0 -0 -0 -0 -0 -0 -0 -0 -0 -0 -0 -0 -0 -0 -0 -0 -0 -0 -0 -0 -0 -0 -0 -0 -0 -0 -0 -0 -0
-0 -0 -8 -14 -0 -0 -0 -0 -0 -0 -0 -0 -0 -0 -0 -0 -0 -0 -0 -0 -0 -0 -0 -0 -0 -0 -0 -0 -0 -0 -0 -0 -0 -0 -0 -0 -0 -0 -0 -0 -0 -0 -0 -0
-0 -8 -7 -0 -0 -0 -0 -0 -0 -0 -0 -0 -0 -0 -0 -0 -0 -0 -0 -0 -0 -0 -0 -0 -0 -0 -0 -0 -0 -0 -0 -0 -0 -0 -0 -0 -0 -0 -0 -0 -0 -0 -0 -0
-0 -2 -20 -6 -0 -0 -0 -0 -0 -0 -0 -0 -0 -0 -0 -0 -0 -0 -0 -0 -0 -0 -0 -0 -0 -0 -0 -0 -0 -0 -0 -0 -0 -0 -0 -0 -0 -0 -0 -0 -0 -0 -0 -0
Wind_Speed
29 32 36 30 34 31 28 36 39 36 34 35 42 46 43 42 37 37 35 34 34 37 39 18 9 10 9 10 8 9 8 9 8 9 9 9 8 7 6 7 7 6 5 5
33 44 34 26 25 32 32 36 37 34 31 35 42 49 45 44 46 45 45 44 40 40 30 10 14 10 11 11 11 11 11 10 10 10 11 11 9 8 7 7 7 7 7 7
37 31 33 32 30 34 35 38 36 36 32 36 42 55 51 46 47 47 41 40 42 36 34 26 16 14 11 16 14 12 13 12 11 11 10 11 13 14 11 10 9 9 9 8
42 40 32 31 40 36 44 31 36 41 38 44 31 57 49 41 44 47 47 44 40 18 18 30 23 16 15 17 13 14 13 14 13 12 12 13 12 13 12 12 11 11 10 10
42 38 39 41 38 30 38 27 30 34 38 41 45 48 46 37 42 43 45 43 36 27 22 20 16 16 14 13 13 15 14 16 15 13 14 13 15 14 15 15 14 14 13 13
36 27 31 38 32 30 25 24 28 32 35 52 49 46 53 46 42 40 41 39 35 31 30 28 22 19 16 14 13 13 15 17 14 15 15 16 17 14 13 13 14 15 15 16
35 40 35 34 34 29 28 29 39 43 43 53 36 44 62 38 35 34 34 34 34 30 28 27 23 17 14 16 15 14 15 18 16 16 17 18 18 15 16 14 14 15 17 19
46 42 40 33 36 38 34 30 37 45 46 49 37 51 52 38 39 40 40 37 32 31 28 27 27 26 19 14 15 15 15 16 16 16 17 15 15 15 15 16 19 19 20 21
42 48 31 31 32 30 35 42 33 36 35 44 44 49 49 45 42 39 43 42 40 35 30 27 27 24 22 18 16 15 14 15 16 16 16 16 17 17 18 19 19 21 21 22
35 42 36 30 26 31 39 28 41 36 49 55 51 51 55 38 38 36 36 37 40 36 31 27 25 25 23 20 19 18 17 15 16 17 17 18 18 19 20 21 21 21 21 22
37 40 34 28 38 35 33 39 35 36 41 50 60 56 45 47 41 39 36 36 37 38 35 27 23 21 20 19 18 17 17 17 18 18 18 18 19 20 20 21 22 22 22 21
38 32 39 41 31 37 39 39 35 42 48 46 53 69 37 35 34 36 43 38 37 37 34 29 24 23 21 20 18 16 16 17 18 18 18 19 20 20 21 20 21 21 21 21
36 46 51 42 36 32 41 40 39 40 38 51 52 66 36 41 42 40 40 39 36 32 28 26 24 23 22 20 19 18 18 18 19 19 20 20 21 21 21 20 20 20 20 20
27 43 49 60 43 34 43 40 41 42 49 55 52 63 54 40 36 37 39 39 34 29 22 22 23 22 20 19 17 16 16 16 16 16 16 17 18 18 18 18 18 17 17 18
35 44 48 55 49 46 39 43 43 47 51 49 57 55 71 51 49 47 41 37 32 28 23 20 22 20 19 17 16 14 15 15 14 15 15 17 17 17 16 17 17 17 18 19
35 48 41 55 53 56 61 55 48 47 50 51 61 63 67 45 43 47 45 38 37 31 24 23 22 20 18 18 17 16 16 16 16 16 17 18 18 19 19 19 19 18 18 18
30 36 44 62 49 45 60 63 60 57 54 51 62 64 60 57 47 42 43 51 49 43 32 26 22 25 22 21 20 19 18 17 17 19 20 19 18 18 17 16 16 16 15 15
33 36 40 46 44 65 54 41 48 57 61 54 56 72 69 63 53 50 46 48 48 43 39 31 28 29 28 25 23 21 19 19 20 21 19 18 17 16 15 15 14 15 15 15
35 35 42 48 57 51 53 49 44 46 63 56 57 65 73 46 50 61 42 41 44 44 38 35 32 30 27 26 25 23 21 21 21 20 18 17 16 15 13 13 13 13 14 16
37 37 40 44 57 65 57 55 41 41 66 55 51 57 53 45 54 66 44 47 47 42 40 37 34 32 29 27 24 23 23 23 23 20 19 16 15 13 14 12 12 13 14 15
38 40 47 51 55 54 53 56 44 61 65 60 45 53 58 51 49 54 58 49 45 43 40 35 33 33 29 26 25 25 24 23 19 16 15 15 14 13 12 13 12 12 13 14
44 43 46 47 50 59 46 45 46 53 56 63 55 50 52 50 62 69 57 52 45 40 32 31 30 30 28 25 24 23 22 18 15 15 15 14 12 11 10 10 12 12 12 14
55 48 48 44 47 47 40 39 40 43 54 53 57 58 49 46 56 57 52 46 45 42 35 31 29 29 27 24 23 23 20 15 14 14 12 10 9 9 10 10 11 13 14 15
47 45 54 53 58 61 56 53 50 46 53 49 50 53 49 54 51 46 43 39 39 36 35 31 29 29 28 26 23 20 17 14 13 11 10 9 8 8 9 11 12 13 15 16
44 42 51 54 63 56 55 40 40 48 49 46 42 39 41 41 42 37 38 39 35 35 32 31 30 29 27 24 22 19 16 14 12 11 10 9 8 8 8 10 11 13 15 16
42 46 48 52 43 48 52 46 49 46 46 47 48 48 46 41 43 43 42 37 33 32 30 29 30 28 25 23 20 18 16 14 12 11 10 9 8 8 8 8 11 13 14 15
Wind_Direction
245 246 251 252 250 260 263 259 259 264 264 265 262 261 262 262 266 267 270 272 276 269 265 288 247 222 253 256 235 221 220 214 220 244 245 252 234 224 225 213 211 222 257 266
246 245 248 252 262 259 260 262 261 267 270 268 265 261 264 263 262 264 261 248 243 254 267 232 277 261 221 237 238 240 236 232 227 236 250 264 261 260 242 243 237 254 250 238
244 254 248 252 256 259 259 259 262 265 275 272 270 261 262 266 264 261 266 272 270 234 229 217 207 211 218 209 220 238 234 235 237 235 251 265 277 283 274 268 253 235 231 247
248 250 251 254 254 255 258 265 267 264 269 262 273 260 262 267 264 260 263 271 235 261 230 219 211 211 213 212 221 220 229 227 233 235 240 228 234 236 252 263 262 263 255 257
248 250 248 251 257 256 261 264 266 267 265 267 264 264 262 268 265 266 268 272 277 275 270 230 244 231 241 254 230 222 223 213 216 223 224 234 228 258 275 278 273 271 271 265
255 265 253 252 254 253 259 263 269 269 268 258 259 261 259 262 267 273 275 275 278 277 275 277 279 269 247 253 245 233 219 215 223 221 222 224 225 238 257 264 261 271 274 278
253 251 259 254 250 251 250 255 259 258 257 256 266 258 251 267 272 277 282 281 277 279 279 278 279 273 262 242 237 235 223 217 222 219 219 217 223 238 236 248 254 270 281 284
246 249 247 248 249 249 243 250 254 256 257 260 265 260 262 272 274 275 276 279 282 282 284 278 281 280 273 253 234 231 227 223 229 228 225 233 238 247 249 265 278 281 284 286
249 251 259 257 253 248 250 248 256 267 271 265 264 266 271 273 277 282 278 274 276 279 278 282 280 282 277 269 251 241 238 237 242 237 247 252 261 261 270 276 279 283 286 289
253 254 256 253 254 253 250 255 254 260 258 260 263 264 260 275 278 284 287 284 274 276 281 276 283 281 279 274 271 264 258 250 250 253 258 264 265 268 273 281 280 282 287 289
250 252 257 251 248 247 251 250 256 260 260 262 262 264 274 274 280 281 288 289 283 280 275 273 276 282 283 280 274 269 266 263 263 265 267 269 274 276 278 278 280 283 287 288
240 254 252 251 264 252 251 253 253 256 258 263 266 262 274 283 291 290 282 291 288 281 276 273 268 275 280 283 281 276 274 270 271 274 275 277 281 283 284 285 288 291 290 292
237 245 249 255 262 259 251 251 255 257 269 261 264 264 278 279 280 285 286 285 287 291 279 273 267 270 274 278 282 282 283 280 280 282 283 286 289 291 292 295 298 300 301 301
245 248 248 248 258 263 259 257 255 257 261 263 263 266 267 275 283 289 287 288 291 289 285 273 266 268 272 275 278 281 284 286 288 289 290 292 294 297 299 303 306 309 311 312
252 254 253 255 259 261 269 265 258 256 259 262 266 266 260 271 275 278 285 292 291 289 280 271 267 265 267 270 273 278 283 287 291 293 297 298 301 305 308 309 311 312 313 313
256 255 261 259 261 261 262 265 268 263 261 262 263 265 248 278 276 272 274 281 285 285 280 272 262 260 262 263 266 275 281 286 292 294 296 298 301 304 307 310 312 314 316 319
263 258 259 257 262 269 261 257 260 265 266 266 262 239 261 268 272 274 275 271 275 278 278 267 254 260 263 263 266 272 279 286 290 292 294 297 301 304 308 312 316 319 321 323
262 261 265 265 268 258 266 274 267 263 263 263 265 246 259 267 274 275 274 274 274 275 270 265 260 261 265 266 268 273 280 285 290 292 294 297 300 304 309 314 318 324 328 332
261 264 266 263 262 271 272 269 271 270 267 265 265 267 246 266 276 271 266 271 272 273 273 263 259 261 261 261 265 270 279 286 289 289 291 295 299 303 309 315 322 330 335 337
259 261 263 265 264 265 270 272 277 280 272 273 265 264 251 269 268 249 267 271 271 272 271 265 256 257 258 261 263 267 276 282 283 286 291 298 301 304 308 317 324 331 337 340
264 261 258 262 267 272 273 273 280 270 272 277 271 268 269 266 260 248 275 272 270 270 267 265 257 251 251 255 256 265 275 279 285 290 294 297 298 301 308 316 326 334 340 342
262 263 262 264 268 271 277 278 268 279 279 267 267 268 267 268 265 260 269 268 265 266 263 259 253 248 248 249 253 262 271 279 283 285 287 289 295 304 312 323 329 337 342 338
262 259 264 262 268 273 278 280 282 286 277 275 265 265 267 273 264 265 269 269 262 261 261 255 247 241 243 244 250 259 266 270 275 278 279 282 294 306 316 325 330 331 334 334
268 265 262 266 265 266 274 276 282 287 277 280 274 267 268 268 268 273 272 272 265 261 254 249 241 237 240 245 251 258 258 262 265 263 265 276 290 305 319 325 329 332 334 335
271 269 264 263 261 267 267 282 288 289 282 277 274 276 271 273 270 279 277 273 267 259 256 245 236 237 239 242 248 250 249 250 248 249 259 271 286 299 314 325 331 335 336 336
274 268 263 261 266 266 268 279 286 289 286 274 271 270 269 274 275 277 276 276 268 257 250 244 237 236 236 239 241 242 243 239 234 241 250 261 273 289 306 318 327 337 337 339